Location: Star Hoppers Observatory
(42.7905°N, 83.6127°W)
Time: 05:33:31
(UTC-05:00)

Daily predictions for brighter satellites

Satellite Brightness Start Highest point End
(mag) Time Altitude Azimuth Time Altitude Azimuth Time Altitude Azimuth
SL-16 R/B 3.9 04:40:07 25° NNE 04:40:07 25° NNE 04:42:21 10° NNE
ADEOS II 4.5 04:51:33 10° NNE 04:51:54 12° NNE 04:51:54 12° NNE
Cosmos 2184 Rocket 4.4 04:55:53 10° S 05:01:54 60° E 05:07:59 10° NNE
CZ-3 R/B 4.3 04:53:06 10° SW 05:03:51 19° S 05:08:55 10° SE
Cosmos 2237 Rocket 4.4 05:10:20 12° N 05:10:20 12° N 05:10:46 10° N
USA 215 3.8 05:05:29 10° NE 05:11:52 54° SE 05:16:25 20° SSW
Cosmos 1371 Rocket 4.1 05:12:43 70° NE 05:12:59 71° ENE 05:18:13 10° SSE
Cosmos 1238 Rocket 3.7 05:15:34 64° S 05:15:34 64° S 05:20:34 10° S
USA 32 4.0 05:15:03 71° NNE 05:15:30 78° E 05:20:45 10° S
CENTAUR R/B 3.3 05:27:39 37° NNW 05:27:39 37° NNW 05:33:23 10° NNE
DNEPR-1 R/B 4.4 05:26:03 42° SW 05:28:35 77° NW 05:34:35 10° NNE
Cosmos 921 Rocket 4.2 05:34:12 33° S 05:34:12 33° S 05:36:49 10° S
Cosmos 2369 Rocket 3.2 05:28:50 19° N 05:32:40 45° ENE 05:38:06 10° SE
Cosmos 1603 3.6 05:28:49 10° SSW 05:34:31 86° ESE 05:40:13 10° NNE
Cosmos 44 Rocket 4.0 05:30:21 10° SSW 05:35:25 58° ESE 05:40:27 10° NE
Lacrosse 5 2.3 05:34:49 29° SSW 05:37:20 62° SE 05:42:23 10° NE
Cosmos 1610 Rocket 4.5 05:32:35 10° S 05:38:45 82° E 05:45:03 10° N
Okean 1 Rocket 3.5 05:40:01 10° S 05:44:21 62° E 05:48:41 10° NNE
Cosmos 1536 4.3 05:41:12 10° SSE 05:44:53 37° E 05:48:36 10° NNE
Feng Yun 1-1 Rocket 4.3 05:42:32 10° N 05:47:59 53° WNW 05:53:16 10° SW
COSMO-SKYMED 1 2.5 05:46:48 10° SSE 05:51:08 90° W 05:53:19 29° NNW
Meteor 1-20 Rocket 4.3 05:50:07 10° SSW 05:55:28 47° WNW 06:00:46 10° N
Cosmos 1943 3.7 05:53:07 10° S 05:58:38 62° ESE 06:04:13 10° NNE
Lacrosse 4 Rocket 3.8 05:57:46 10° N 06:00:36 17° NE 06:03:24 10° E
NOAA 6 3.9 05:56:40 10° N 06:01:45 64° WNW 06:06:48 10° SSW
Okean 1-7 Rocket 3.5 05:58:49 13° N 06:02:42 85° E 06:07:05 10° S
Lacrosse 5 rocket 3.7 06:06:47 12° N 06:07:09 12° N 06:08:52 10° NNE
SL-23 DEB 4.3 06:08:59 31° N 06:09:43 36° NNE 06:12:57 10° E
Cosmos 1300 Rocket 3.6 06:06:17 10° SSW 06:10:36 53° W 06:14:56 10° N
CRYOSAT 2 4.5 06:06:01 10° SSW 06:10:45 50° W 06:15:32 10° NNW
Nadezhda 3 Rocket 3.9 06:04:26 10° N 06:10:50 77° W 06:17:10 10° S
Tiangong 2 0.9 06:12:41 62° W 06:13:09 85° S 06:16:18 10° E
Cosmos 1943 Rocket 3.1 06:09:36 10° NNW 06:14:54 45° ENE 06:20:09 10° SE
Cosmos 1633 2.5 06:12:44 10° SSW 06:16:19 55° W 06:19:54 10° N
CSL-04 DEB 4.3 06:14:21 10° NNE 06:18:25 79° WNW 06:22:35 10° SSW
SL-16 R/B 3.6 06:22:04 18° NW 06:22:04 18° NW 06:25:23 10° N
USA 229 DEB 4.2 06:19:00 10° SSW 06:25:45 63° ESE 06:32:38 10° NE
USA 229 4.2 06:19:07 10° SSW 06:25:52 63° ESE 06:32:43 10° NE
Helios 1B rocket 3.9 06:23:49 10° SE 06:27:39 38° ENE 06:31:31 10° N
Cosmos 962 Rocket 4.4 06:21:40 10° SSW 06:27:50 75° W 06:34:07 10° N
Cosmos 1602 4.3 06:26:40 10° SW 06:30:18 35° WNW 06:33:58 10° N
Meteor 1-19 Rocket 4.4 06:25:40 10° NNW 06:31:20 53° W 06:36:55 10° S
Cosmos 44 3.4 06:28:59 10° SW 06:34:21 79° NW 06:39:34 10° NNE
Cosmos 2341 Rocket 4.0 06:29:33 10° SSW 06:35:47 66° W 06:42:02 10° N
Cosmos 2056 Rocket 4.4 06:33:58 20° WNW 06:36:13 27° W 06:40:28 10° SSW
SMAP 4.3 06:31:45 10° NNE 06:36:13 45° E 06:40:40 10° S
Cosmos 1455 Rocket 4.2 06:32:47 10° SSE 06:36:54 45° E 06:41:03 10° NNE
Cosmos 1420 Rocket 4.2 06:32:41 10° NNW 06:37:57 74° ENE 06:43:09 10° SSE
Cosmos 2263 4.1 06:34:42 10° NNW 06:40:20 76° WSW 06:45:54 10° SSE
Meteor 1-11 Rocket 4.0 06:34:55 10° SSW 06:40:31 47° WNW 06:46:03 10° N
USA 129 1.9 06:39:59 10° S 06:42:01 47° W 06:42:47 29° NW
Cosmos 2084 4.4 06:40:06 10° SSW 06:43:48 44° ESE 06:47:27 10° NE
Meteor 1-28 Rocket 3.8 06:41:59 10° SSW 06:45:30 36° W 06:49:04 10° NNW
Abrixas rocket 2.3 06:43:16 18° W 06:45:38 59° NNW 06:48:58 10° ENE
SPOT 3 Rocket 4.4 06:41:02 10° NNE 06:46:05 54° E 06:51:06 10° S
Ariane Rocket 3.3 06:44:14 10° N 06:48:59 43° WNW 06:53:45 10° SW
Cosmos 1048 Rocket 4.3 06:47:50 10° S 06:52:54 72° ESE 06:58:06 10° NNE
USA 215 3.5 06:48:34 10° NE 06:54:50 52° NNW 07:01:06 10° WSW
Meteor 1-29 3.5 06:54:05 10° SSE 06:57:23 60° ENE 07:00:44 10° N
Cosmos 1340 2.6 06:54:22 10° NNW 06:58:08 62° W 07:01:52 10° S
Meteor 1-23 Rocket 4.4 06:53:00 10° NNW 06:58:21 49° W 07:03:39 10° SSW
CSL-04 Rocket 4.0 06:54:31 10° N 06:59:49 47° WNW 07:05:02 10° SW
Okean 2 3.6 06:58:39 10° NNW 07:02:42 51° W 07:06:44 10° S
CZ-2C R/B 2.6 06:58:12 10° NNE 07:03:25 87° ESE 07:08:29 10° SSW
CSL-04 Debris 4.4 06:59:06 10° N 07:04:21 49° WNW 07:09:37 10° SW
Cosmos 1025 Rocket 3.9 07:02:37 10° NNW 07:06:26 30° W 07:10:13 10° SSW
YAOGAN 1 2.6 07:04:14 10° NNE 07:08:36 89° W 07:12:55 10° SSW
Meteor 2-4 Rocket 4.3 07:03:59 10° NNW 07:08:54 34° W 07:13:55 10° SSW
COSMOS 2406 4.3 07:04:07 10° S 07:09:32 51° ESE 07:15:01 10° NE
IDEFIX/ARIANE 42P 2.6 07:04:46 10° NNE 07:09:59 87° WNW 07:15:12 10° SSW
Cosmos 2369 Rocket 3.2 07:11:40 10° NW 07:16:26 28° WSW 07:21:09 10° SSW
Cosmos 44 Rocket 4.5 07:13:05 10° W 07:17:18 25° NW 07:21:30 10° NNE
CZ-4 R/B 1.6 07:13:42 10° N 07:17:29 44° WNW 07:21:11 10° SW
CENTAUR R/B 4.3 07:15:48 10° NW 07:19:51 16° NNW 07:24:09 10° NNE
Meteor 1-5 Rocket 4.4 07:14:50 10° SW 07:19:55 43° WNW 07:24:58 10° N
Cosmos 1602 Rocket 3.9 07:15:30 10° N 07:19:59 73° E 07:24:26 10° SSE
Lacrosse 5 2.7 07:16:03 10° W 07:20:37 32° NNW 07:25:11 10° NE
